User: anonymous   Login
Location: Unspecified
(0.0000°N, 0.0000°E)
Time: 02:33:20
(UTC+00:00)
Language:

USA 207 - Orbit

View from above orbital plane
View from above orbital plane
View from above satellite
View from above satellite

Ground track
Ground track

The orbit data is extracted from the following two-line orbital elements,

1 35815U 09047A   16160.05021914 0.00000000  00000-0  00000-0 0    01
2 35815   0.0634 322.3084 0013414  97.6980 262.4739  1.00270000    04
Epoch (UTC): 08 June 2016 01:12:18
Eccentricity: 0.0013414
inclination: 0.0634°
perigee height: 35730 km
apogee height: 35843 km
right ascension of ascending node: 322.3084°
argument of perigee: 97.6980°
revolutions per day: 1.00270000
mean anomaly at epoch: 262.4739°
orbit number at epoch: 0

The dashed part of the orbit path shows where the satellite is in the earth's shadow,  

DLR